Overview Statistics Trail Chart Weather Telemetry Raw packets
 

This is the latest recevied weather packets stored in our database for station/object S59MA-6. If no packets are shown the sender has not sent any weather packets the latest 10 day(s).

<< 95 96 97 98 99 100 101 >>
Time Temp. Humidity Pressure Rain* Wind** Luminosity Snow
1787816441 24.44° C 72% 1006.7 hPa 249.17 mm - - -
1787816141 24.44° C 72% 1006.8 hPa 249.17 mm - - -
1787815841 23.89° C 72% 1006.8 hPa 249.17 mm - - -
1787815541 23.89° C 72% 1006.8 hPa 253.75 mm - - -
1787814941 23.89° C 73% 1006.8 hPa 253.75 mm - - -
1787814641 23.89° C 73% 1006.8 hPa 253.75 mm - - -
1787814342 23.89° C 73% 1006.9 hPa 253.75 mm - - -
1787813741 24.44° C 74% 1006.9 hPa 253.75 mm - - -
1787813441 24.44° C 74% 1007 hPa 253.75 mm - - -
1787813141 24.44° C 75% 1007 hPa 253.75 mm - - -
1787812841 24.44° C 76% 1007.3 hPa 253.75 mm - - -
1787812542 23.89° C 76% 1007.1 hPa 253.75 mm - - -
1787812241 23.89° C 76% 1007.2 hPa 253.75 mm - - -
1787811941 23.89° C 76% 1007.3 hPa 253.75 mm - - -
1787811344 23.89° C 79% 1005.5 hPa 253.75 mm - - -
1787811049 23.89° C 81% 1007.1 hPa 253.75 mm - - -
1787810441 23.33° C 83% 1007 hPa 253.75 mm - - -
1787810207 22.78° C 85% 1007 hPa 253.75 mm - - -
1787810148 22.78° C 85% 1007 hPa 253.75 mm - - -
1787809844 22.78° C 86% 1007 hPa 253.75 mm - - -
1787809544 21.67° C 87% 1006.2 hPa 253.75 mm - - -
1787809241 21.67° C 87% 1006.9 hPa 253.75 mm - - -
1787808941 21.11° C 88% 1007 hPa 253.75 mm - - -
1787808643 20.56° C 88% 1007 hPa 253.75 mm - - -
1787808341 20° C 88% 1006.9 hPa 253.75 mm - - -

* Rain latest hour (hover to see other rain measurements)
** Current wind speed in m/s (hover to see current wind gust speed)